STARLINK-36494, 67331

Orbit data source: Space-Track

STARLINK-36494, 67331 is a payload satellite owned by SpaceX/Seattle (US) in LEO that was launched on Sun, 04 Jan 2026 UTC via an FALCON 9 launch vehicle from the Air Force Eastern Test Range (AFETR). Payload-class satellites include a variety of spacecraft equipped with specific instruments for various scientific and technological missions. These include communications satellites like Starlink; space stations such as the ISS; scientific satellites like the Hubble; Earth observation satellites from companies like Planet Labs, Umbra, and HawkEye 360; GPS; miniature CubeSats for education and research; and military/defense satellites.

Loading next visibility...
Identifier
67331, 2026-002AC
Orbit
LEO
Country
Flag of USUS
Related business
Manufacturer
SpaceX/Seattle
Mission
Operational Commercial Communications
Bus & Motor
STARLINK V2MO, Unknown motor
Mass
575 kg wet, ~530 kg dry
Launch date (UTC)
2026-01-04 (2 months ago)
Launch vehicle
FALCON 9
Launch site
Air Force Eastern Test Range (AFETR)
Object type
Payload
Rocket body
Debris
Shape & HBR
Box + 2 Pan, 17.7 m
Radar Cross Section
36.964 m²

Expand to show TLE details & history
Last TLE update: 23 hours ago

TLE from 23 hours ago
0 STARLINK-36494
1 67331U 26002AC  26062.18425837  .00070574  00000-0  25478-2 0  9995
2 67331  43.0026   2.0276 0001469 272.2772  87.7912 15.27604599 10242
Epoch: 2026-03-03T04:25Z
TLE epoch observation values (Epoch: 2026-03-03T04:25:19.923Z)
Latitude
0.00003°
Longitude
134.72766°
Altitude
482.712 km
Speed
7.626 km/s
True Right ascension
00h 08m 06s
True Declination
0° 00' 00"
Sunlit
Object was in daylight at epoch
Visualization orbit readout
Latitude
Unknown
Longitude
Unknown
Altitude
Unknown
Speed
Unknown
Apparent Right ascension
Unknown
Apparent Declination
Unknown
Sunlit
N/A
Visualization observer readout
Local Sidereal Time
07:37:31
Azimuth
Unknown
Elevation
Unknown
Doppler factor
Unknown
Orbital elements
Apogee altitude
485.928 km
Perigee altitude
483.912 km
Semi-major axis
6,863.057 km
Eccentricity
0.00015
Inclination
43.0026°
RAAN
2.0276°
Arg. of periapsis
272.2772°
True anomaly
87.80802°
Mean anomaly
87.7912°
Eccentric anomaly
87.79961°
Mean motion
3.81739 °/min
Orbital period
94.31 mins
BSTAR
0.0025478
Loading maneuver chart data...
Computing Atmospheric mass density...
Loading historical data...
Loading historical data...
Loading historical data...
Loading historical data...
Loading historical data...
Loading historical data...
Loading historical data...

Documentation

Showing up to 5 results
|